This is the latest recevied weather packets stored in our database for station/object KO4APQ. If no packets are shown the sender has not sent any weather packets the latest 1 day(s).
| Time | Temp. | Humidity | Pressure | Rain* | Wind** | Luminosity | Snow |
|---|---|---|---|---|---|---|---|
| 1778036533 | 16.67° C | 71% | 1014.7 hPa | 0 mm | 0 m/s | 0 W/m² | - |
| 1778036229 | 16.67° C | 69% | 1014.7 hPa | 0 mm | 0 m/s | 0 W/m² | - |
| 1778035926 | 16.67° C | 68% | 1014.7 hPa | 0 mm | 0 m/s | 0 W/m² | - |
| 1778035623 | 17.22° C | 67% | 1014.6 hPa | 0 mm | 0 m/s | 0 W/m² | - |
| 1778035319 | 17.78° C | 64% | 1014.7 hPa | 0 mm | 0 m/s | 0 W/m² | - |
| 1778035016 | 18.33° C | 62% | 1014.6 hPa | 0 mm | 0 m/s | 0 W/m² | - |
| 1778034713 | 18.89° C | 60% | 1014.7 hPa | 0 mm | 0 m/s | 0 W/m² | - |
| 1778034410 | 18.89° C | 59% | 1014.6 hPa | 0 mm | 0 m/s | 0 W/m² | - |
| 1778034108 | 18.33° C | 59% | 1014.5 hPa | 0 mm | 0 m/s | 0 W/m² | - |
| 1778033806 | 17.78° C | 62% | 1014.5 hPa | 0 mm | 0 m/s | 0 W/m² | - |
| 1778033502 | 17.78° C | 64% | 1014.6 hPa | 0 mm | 0 m/s | 0 W/m² | - |
| 1778033199 | 17.78° C | 66% | 1014.5 hPa | 0 mm | 0 m/s | 0 W/m² | - |
| 1778032897 | 17.78° C | 64% | 1014.5 hPa | 0 mm | 0 m/s | 0 W/m² | - |
| 1778032594 | 17.78° C | 63% | 1014.3 hPa | 0 mm | 0 m/s | 0 W/m² | - |
| 1778032291 | 18.33° C | 62% | 1014.3 hPa | 0 mm | 0 m/s | 0 W/m² | - |
| 1778031989 | 18.33° C | 61% | 1014 hPa | 0 mm | 0 m/s | 0 W/m² | - |
| 1778031684 | 18.89° C | 60% | 1014.1 hPa | 0 mm | 0 m/s | 0 W/m² | - |
| 1778031383 | 18.89° C | 59% | 1014.2 hPa | 0 mm | 0 m/s | 0 W/m² | - |
| 1778031079 | 19.44° C | 57% | 1014 hPa | 0 mm | 0 m/s | 0 W/m² | - |
| 1778030775 | 19.44° C | 55% | 1014.2 hPa | 0 mm | 0 m/s | 0 W/m² | - |
| 1778030472 | 19.44° C | 57% | 1014.4 hPa | 0 mm | 0 m/s | 0 W/m² | - |
| 1778030170 | 20° C | 58% | 1014.3 hPa | 0 mm | 0 m/s | 0 W/m² | - |
| 1778029866 | 20.56° C | 56% | 1014.5 hPa | 0 mm | 0 m/s | 0 W/m² | - |
| 1778029565 | 20.56° C | 55% | 1014.4 hPa | 0 mm | 0 m/s | 0 W/m² | - |
| 1778029262 | 21.11° C | 55% | 1014.4 hPa | 0 mm | 0 m/s | 0 W/m² | - |
* Rain latest hour (hover to see other rain measurements)
** Current wind speed in m/s (hover to see current wind gust speed)